Other Public Products
Issued by NWS Grand Forks, ND

Home | Current Version | Previous Version | Text Only | Print | Product List | Glossary On
Versions: 1 2 3 4 5 6 7 8 9 10 11 12 13 14 15 16 17 18 19 20 21 22 23 24 25 26 27 28 29 30 31 32 33 34 35 36 37 38 39 40 41 42 43 44 45 46 47 48 49 50
000
FPUS83 KFGF 230610
OPUFGF
PRAIRIE TO PINES WEATHER ROUNDUP
NATIONAL WEATHER SERVICE EASTERN NORTH DAKOTA/GRAND FORKS ND
100 AM CDT THU MAR 23 2017

 **SATELLITE DATA USED TO AUGMENT SKY COVER AT AUTOMATED STATIONS**
 *****  WEATHER ACROSS EASTERN NORTH DAKOTA  *****

CITY           SKY/WX    TMP DP  RH WIND       PRES   REMARKS
GRAND FORKS    CLOUDY    34  21  59 S17G31    30.00F WCI  23
6HR MIN TEMP:  30; 6HR MAX TEMP:  35;

GRAND FORKS AF MOCLDY    33  25  70 S20G32    29.99F WCI  22
GRAND CITY NWS NOT AVBL
BUXTON         NOT AVBL
DEVILS LAKE    FAIR      30  25  81 S15       29.92F WCI  19
6HR MIN TEMP:  28; 6HR MAX TEMP:  30;

FARGO          FAIR      36  25  64 S21G32    30.04F
6HR MIN TEMP:  33; 6HR MAX TEMP:  36;

WAHPETON ARPT  FAIR      34  23  64 SE17      30.06F WCI  23
$$

 *****  WEATHER ACROSS CENTRAL AND WESTERN NORTH DAKOTA  *****

CITY           SKY/WX    TMP DP  RH WIND       PRES   REMARKS
JAMESTOWN      FAIR      30  24  78 SE15      29.92F WCI  19
6HR MIN TEMP:  29; 6HR MAX TEMP:  32;

BISMARCK       FAIR      34  27  75 SE8       29.85F
6HR MIN TEMP:  33; 6HR MAX TEMP:  44;

MINOT          FAIR      34  29  82 S9        29.80F
6HR MIN TEMP:  34; 6HR MAX TEMP:  40;

MINOT AFB      FAIR      31  28  90 S6        29.81S
6HR MIN TEMP:  31; 6HR MAX TEMP:  37;

GARRISON         N/A     31  28  89 SE6       29.82F
6HR MIN TEMP:  30; 6HR MAX TEMP:  40;

WILLISTON      FAIR      31  28  89 CALM      29.78S
6HR MIN TEMP:  29; 6HR MAX TEMP:  52;

DICKINSON      FAIR      33  29  85 SE3       29.78R
6HR MIN TEMP:  32; 6HR MAX TEMP:  54;

HETTINGER      FAIR      34  29  82 E7        29.78S
6HR MIN TEMP:  33; 6HR MAX TEMP:  58;

$$

 *****  OTHER OBSERVATIONS NORTHEAST NORTH DAKOTA  *****

CITY           SKY/WX    TMP DP  RH WIND       PRES   REMARKS
WALHALLA       NOT AVBL
LANGDON        NOT AVBL
CAVALIER       NOT AVBL
GRAFTON        CLOUDY    32  27  80 S17G25    30.02F WCI  21
CANDO          NOT AVBL
FORT TOTTEN      N/A     29  26  88 S17       29.95S WCI  17
ROLLA          FAIR      27  27 100 S15       29.88F WCI  15
RUGBY            N/A     28  28 100 SE16      29.85F WCI  17
 ***** THE ABOVE OBSERVATIONS ARE NON NWS ARE NOT QUALITY
        CONTROLLED AND MAY MIS-REPORT RAIN FOR SNOW...
$$

 *****  OTHER OBSERVATIONS SOUTHEAST NORTH DAKOTA *****

CITY           SKY/WX    TMP DP  RH WIND       PRES   REMARKS
COOPERSTOWN    FAIR      30  27  86 SE21G28   29.95F WCI  17
VALLEY CITY    MOCLDY    30  30 100 SE17      29.97F WCI  18
OAKES          NOT AVBL
GWINNER        CLEAR     32  27  80 MISG      29.98F
SHEYENNE NWR     N/A     32  24  72 S16       29.95S WCI  21
BUFFALO        NOT AVBL
WYNDMERE       NOT AVBL
 ***** THE ABOVE OBSERVATIONS ARE NON NWS ARE NOT QUALITY
       CONTROLLED AND MAY MIS-REPORT RAIN FOR SNOW...
$$

  *****  WEATHER ACROSS NORTHERN MINNESOTA  *****

CITY           SKY/WX    TMP DP  RH WIND       PRES   REMARKS
FLAG ISLAND    CLOUDY    28  23  80 SE18      30.08F WCI  16
WARROAD        CLOUDY    32  21  64 SE16      30.08F WCI  21
ROSEAU         MOCLDY    34  21  60 S14       30.06F WCI  24
HALLOCK        CLOUDY    34  27  75 S17       30.01F WCI  23
THF RVR FALLS    N/A    N/A N/A N/A MISG        N/A
HALSTAD          N/A     35  25  66 S25         N/A  WCI  23
FOSSTON        CLOUDY    32  19  59 S16G23    30.07F WCI  21
BAUDETTE       CLOUDY    31  20  63 SE14      30.10F WCI  21
6HR MIN TEMP:  29; 6HR MAX TEMP:  34; 6HR PCP: TRACE;

WASKISH        CLOUDY    32  18  55 SE12      30.13F WCI  23
CROOKSTON      CLOUDY    34  23  64 S17       30.05F WCI  23
$$
  *****  WEATHER ACROSS CENTRAL AND WEST MINNESOTA  *****

CITY           SKY/WX    TMP DP  RH WIND       PRES   REMARKS
BEMIDJI        CLOUDY    32  18  56 SE17      30.12F WCI  21
PARK RAPIDS    CLOUDY    34  17  50 SE15      30.13F WCI  24
6HR MIN TEMP:  32; 6HR MAX TEMP:  34;

WADENA         CLOUDY    34  21  60 S15       30.13F WCI  24
DETROIT LAKES  CLOUDY    34  23  64 S17G24    30.09F WCI  23
MOORHEAD       FAIR      36  23  60 S22G30    30.05F
FERGUS FALLS   CLOUDY    36  21  55 S23G29    30.12F
ELBOW LAKE     CLOUDY    35  23  62 SE22G30   30.10F WCI  23
6HR MIN TEMP:  32; 6HR MAX TEMP:  35;

MORRIS MN      CLOUDY    36  25  64 SE22G28   30.09F
STAPLES        CLOUDY    34  18  51 S13       30.16F WCI  25
WHEATON        MOCLDY    36  25  64 SE22      30.08F
$$
  *****  WEATHER ELSEWHERE ACROSS MINNESOTA  *****

CITY           SKY/WX    TMP DP  RH WIND       PRES   REMARKS
DULUTH         FLURRIES  29  21  72 E12       30.24F WCI  19
6HR MIN TEMP:  25; 6HR MAX TEMP:  29; 6HR PCP: TRACE;

INTRNTL FALLS  MIX PCPN  28  23  81 SE8       30.18F WCI  20
6HR MIN TEMP:  28; 6HR MAX TEMP:  34; 6HR PCP:  0.01;

ELY            CLOUDY    27  16  63 S9        30.25F WCI  17
CLOQUET        CLOUDY    30  18  59 SE6       30.24F WCI  24
BRAINERD       CLOUDY    34  14  43 SE9       30.19F
6HR MIN TEMP:  32; 6HR MAX TEMP:  34; 6HR PCP: TRACE;

HIBBING        CLOUDY    28  17  63 SE10      30.21F WCI  19
6HR MIN TEMP:  27; 6HR MAX TEMP:  32; 6HR PCP: TRACE;

ALEXANDRIA     CLOUDY    35  21  56 S20       30.14F WCI  24
6HR MIN TEMP:  32; 6HR MAX TEMP:  35;

SAINT CLOUD    CLOUDY    35  18  49 SE14      30.20F
6HR MIN TEMP:  35; 6HR MAX TEMP:  36;

MINNEAPOLIS    CLOUDY    36  16  44 SE12      30.26F
6HR MIN TEMP:  36; 6HR MAX TEMP:  38;

$$

  *****  WEATHER ACROSS SOUTH DAKOTA  *****

CITY           SKY/WX    TMP DP  RH WIND       PRES   REMARKS
SIOUX FALLS    CLOUDY    40  27  59 SE16G23   30.08F
6HR MIN TEMP:  39; 6HR MAX TEMP:  40;

BROOKINGS      CLOUDY    37  25  61 S21G28    30.03F
WATERTOWN      FAIR      35  25  66 S22G30    29.99F WCI  23
6HR MIN TEMP:  33; 6HR MAX TEMP:  35;

HURON          FAIR      38  28  67 S20G30    29.96F
6HR MIN TEMP:  37; 6HR MAX TEMP:  40;

SISSETON         N/A     34  27  75 S18       30.02F WCI  23
ABERDEEN       FAIR      36  26  67 S21G29    29.94F
6HR MIN TEMP:  33; 6HR MAX TEMP:  36;

MITCHELL       CLOUDY    43  28  55 SE22      29.99F
PIERRE         FAIR      46  30  53 SE17      29.85S
6HR MIN TEMP:  46; 6HR MAX TEMP:  53;

MOBRIDGE       FAIR      40  27  59 SE16      29.79F
RAPID CITY     FAIR      43  37  79 S10       29.74F
6HR MIN TEMP:  39; 6HR MAX TEMP:  61;

$$

  *****  SOME WEATHER IN NEARBY STATES *****

CITY           SKY/WX    TMP DP  RH WIND       PRES   REMARKS
GLASGOW MT     FAIR      42  35  76 SE10      29.74S
6HR MIN TEMP:  41; 6HR MAX TEMP:  58;

GREAT FALLS MT FAIR      39  25  57 CALM      29.80S
6HR MIN TEMP:  36; 6HR MAX TEMP:  59;

CHEYENNE WY    FAIR      51  37  58 SE13      29.82F
6HR MIN TEMP:  51; 6HR MAX TEMP:  63;

SCOTTSBLUFF NE FAIR      49  36  61 E15       29.78F
6HR MIN TEMP:  49; 6HR MAX TEMP:  68;

OMAHA NE       CLOUDY    46  24  42 SE20      30.14F
6HR MIN TEMP:  45; 6HR MAX TEMP:  49;

DES MOINES IA  CLOUDY    42  17  36 SE13      30.24F
6HR MIN TEMP:  42; 6HR MAX TEMP:  45;

DAVENPORT IA   FAIR      35  19  52 SE16      30.38S
6HR MIN TEMP:  35; 6HR MAX TEMP:  40;

CHICAGO IL     FAIR      31  22  69 E7        30.45F WCI  24
6HR MIN TEMP:  28; 6HR MAX TEMP:  31;

EAU CLAIRE WI  CLOUDY    35  12  38 SE8       30.32F
6HR MIN TEMP:  33; 6HR MAX TEMP:  37;

LA CROSSE WI   CLOUDY    38  17  42 SE13      30.35S
6HR MIN TEMP:  37; 6HR MAX TEMP:  41;

$$

  *****  SOME NATIONAL WEATHER *****

CITY           SKY/WX    TMP DP  RH WIND       PRES   REMARKS
LA GUARDIA NY  FAIR      26   4  38 NW10      30.47S WCI  16
6HR MIN TEMP:  26; 6HR MAX TEMP:  31;



USA.gov is the U.S. government's official web portal to all federal, state and local government web resources and services.